HELLAS-SAT 4 & SGS-1 (44034 NORAD) Tracking and Keplerian Element Data

This shows tracking and keplerian element data for the satellite.

Feedback or suggestion? Click here.




ElementValue
Catalog44034
NameHELLAS-SAT 4 & SGS-1
Epoch Orbit26
Epoch Day50.05602336
Epoch Year2019
RAAN273.8348
Inclination1.3223
Eccentricity0.3638423
Argument of Perigee178.5148
Mean Anonmoly352.6579
Mean Motion1.60172118
Decay Rate-8.3E-07
L11 44034U 19007A 19050.05602336 -.00000083 00000-0 00000+0 0 9993
L22 44034 1.3223 273.8348 3638423 178.5148 352.6579 1.60172118 268

Live tracking and technical data element details for HELLAS-SAT 4 & SGS-1 (NORAD 44034). HELLAS-SAT 4 & SGS-1 can be tracked NOW for your location showing map with azimuth and elevation plus other details from your city location.

Track the satellite on the map from your city or location and see movement details for azimuth, elevation, latitude, longitude, range, height, and movement on the map or in text.







IsCatalogInMostPopularTable: catalog: 44034, numindb: 6
Update: records affected: 1



GetName: 44034 HELLAS-SAT 4 & SGS-1

Hit Count: updated at: Thu, 21 Feb 2019 11:23:38 GMT